Tracking 31027 objects as of 19-Jul-2025
HD Live streaming from Space Station
objects crossing your sky now

MEV-1

Track MEV-1 now!


NORAD ID: 44625
Int'l Code: 2019-067B
Perigee: 35,791.5 km
Apogee: 35,799.2 km
Inclination: 0.5 °
Period: 1,436.2 minutes
Semi major axis: 42166 km
RCS: Unknown
Launch date: October 9, 2019
Source: United States (US)
Launch site: TYURATAM MISSILE AND SPACE COMPLEX (TTMTR)
Your satellite tracking list
Your tracking list is empty




NASA's NSSDC Master Catalog

Two Line Element Set (TLE):
1 44625U 19067B   25199.54253146 -.00000142  00000-0  00000-0 0  9998
2 44625   0.4569  82.8325 0000913 105.9514  99.2165  1.00265928 21001
Source of the keplerian elements: AFSPC